When you browse on this site, cookies collect data to enhance your experience and personalize the content and advertising you see.
Visit our Privacy Policy to learn more. By continuing to use the site, you agree to this use of cookies and data.
  • In France
  • List of Countries
  • For 7 days
  • Water Temperature
  • Weather Map
  • Weather Widgets
  • user-avatar
    Login

    Hourly Weather Bedford

    Today, 26 August, Monday

    Time Temperature Precipitation Wind Pressure Humidity
    00:00 +20°C° 0 mm 2 mps 761 mmHg 68%
    01:00 +20°C° 0 mm 2 mps 761 mmHg 71%
    02:00 +19°C° 0 mm 2 mps 760 mmHg 73%
    03:00 +20°C° 0 mm 1 mps 760 mmHg 75%
    04:00 +20°C° 0 mm 1 mps 760 mmHg 76%
    05:00 +20°C° 0 mm 1 mps 760 mmHg 77%
    06:00 +20°C° 0 mm 1 mps 760 mmHg 79%
    07:00 +22°C° 0 mm 1 mps 760 mmHg 72%
    08:00 +23°C° 0 mm 1 mps 760 mmHg 65%
    09:00 +25°C° 0 mm 1 mps 760 mmHg 58%
    10:00 +27°C° 0 mm 1 mps 760 mmHg 53%
    11:00 +28°C° 0 mm 1 mps 760 mmHg 47%
    12:00 +30°C° 0 mm 2 mps 760 mmHg 42%
    13:00 +30°C° 0 mm 2 mps 760 mmHg 41%
    14:00 +31°C° 0 mm 2 mps 759 mmHg 40%
    15:00 +31°C° 0 mm 3 mps 759 mmHg 39%
    16:00 +30°C° 0 mm 2 mps 759 mmHg 44%
    17:00 +29°C° 0 mm 2 mps 758 mmHg 49%
    18:00 +28°C° 0 mm 1 mps 758 mmHg 54%
    19:00 +27°C° 0 mm 1 mps 759 mmHg 57%
    20:00 +25°C° 0 mm 1 mps 759 mmHg 60%
    21:00 +23°C° 0 mm 1 mps 759 mmHg 64%
    22:00 +23°C° 0 mm 1 mps 759 mmHg 67%
    23:00 +21°C° 0 mm 2 mps 759 mmHg 71%

    Tomorrow, 27 August, Tuesday

    Time Temperature Precipitation Wind Pressure Humidity
    00:00 +20°C° 0 mm 2 mps 758 mmHg 74%
    01:00 +21°C° 0 mm 1 mps 758 mmHg 75%
    02:00 +21°C° 0 mm 1 mps 758 mmHg 77%
    03:00 +19°C° 0 mm 0 mps 758 mmHg 78%
    04:00 +21°C° 0 mm 1 mps 758 mmHg 78%
    05:00 +21°C° 0 mm 1 mps 758 mmHg 78%
    06:00 +21°C° 0 mm 1 mps 758 mmHg 78%
    07:00 +21°C° 0 mm 2 mps 758 mmHg 76%
    08:00 +22°C° 0 mm 3 mps 758 mmHg 73%
    09:00 +23°C° 0 mm 4 mps 758 mmHg 70%
    10:00 +25°C° 0 mm 3 mps 758 mmHg 65%
    11:00 +26°C° 0 mm 2 mps 758 mmHg 60%
    12:00 +27°C° 0 mm 2 mps 758 mmHg 55%
    13:00 +27°C° 0 mm 2 mps 757 mmHg 54%
    14:00 +28°C° 0 mm 2 mps 757 mmHg 53%
    15:00 +28°C° 0 mm 2 mps 757 mmHg 52%
    16:00 +27°C° 0 mm 2 mps 757 mmHg 59%
    17:00 +25°C° 0 mm 3 mps 757 mmHg 66%
    18:00 +22°C° 0 mm 3 mps 757 mmHg 73%
    19:00 +23°C° 0.5 mm 2 mps 757 mmHg 76%
    20:00 +21°C° 0.5 mm 2 mps 757 mmHg 80%
    21:00 +21°C° 0.5 mm 1 mps 757 mmHg 83%
    22:00 +21°C° 0.2 mm 1 mps 757 mmHg 84%
    23:00 +21°C° 0.2 mm 1 mps 757 mmHg 85%

    Day after tomorrow, 28 August, Wednesday

    Time Temperature Precipitation Wind Pressure Humidity
    00:00 +20°C° 0.2 mm 1 mps 757 mmHg 86%
    01:00 +20°C° 0 mm 1 mps 757 mmHg 86%
    02:00 +20°C° 0 mm 1 mps 756 mmHg 86%
    03:00 +19°C° 0 mm 2 mps 756 mmHg 86%
    04:00 +19°C° 0.1 mm 2 mps 756 mmHg 85%
    05:00 +19°C° 0.1 mm 2 mps 756 mmHg 85%
    06:00 +19°C° 0.1 mm 1 mps 756 mmHg 84%
    07:00 +20°C° 0 mm 1 mps 756 mmHg 81%
    08:00 +20°C° 0 mm 1 mps 756 mmHg 78%
    09:00 +21°C° 0 mm 1 mps 756 mmHg 74%
    10:00 +21°C° 0 mm 2 mps 756 mmHg 69%
    11:00 +24°C° 0 mm 2 mps 756 mmHg 64%
    12:00 +25°C° 0 mm 3 mps 756 mmHg 58%
    13:00 +25°C° 0 mm 3 mps 756 mmHg 57%
    14:00 +26°C° 0 mm 4 mps 756 mmHg 56%
    15:00 +26°C° 0 mm 4 mps 755 mmHg 55%
    16:00 +25°C° 0 mm 4 mps 755 mmHg 58%
    17:00 +24°C° 0 mm 3 mps 755 mmHg 62%
    18:00 +21°C° 0 mm 3 mps 755 mmHg 65%
    19:00 +20°C° 0 mm 3 mps 756 mmHg 68%
    20:00 +19°C° 0 mm 3 mps 756 mmHg 71%
    21:00 +19°C° 0 mm 4 mps 756 mmHg 73%
    22:00 +18°C° 0 mm 4 mps 756 mmHg 77%
    23:00 +18°C° 0 mm 4 mps 757 mmHg 81%

    29 August, Thursday

    Time Temperature Precipitation Wind Pressure Humidity
    00:00 +17°C° 0 mm 4 mps 757 mmHg 85%
    01:00 +17°C° 0 mm 4 mps 757 mmHg 86%
    02:00 +15°C° 0 mm 4 mps 757 mmHg 87%
    03:00 +14°C° 0 mm 3 mps 757 mmHg 88%
    04:00 +14°C° 0 mm 3 mps 758 mmHg 88%
    05:00 +13°C° 0 mm 3 mps 758 mmHg 88%
    06:00 +13°C° 0 mm 3 mps 759 mmHg 89%
    07:00 +14°C° 0 mm 3 mps 759 mmHg 81%
    08:00 +15°C° 0 mm 4 mps 760 mmHg 74%
    09:00 +18°C° 0 mm 4 mps 760 mmHg 67%
    10:00 +19°C° 0 mm 4 mps 760 mmHg 59%
    11:00 +20°C° 0 mm 4 mps 760 mmHg 52%
    12:00 +21°C° 0 mm 3 mps 761 mmHg 45%
    13:00 +21°C° 0 mm 4 mps 761 mmHg 44%
    14:00 +21°C° 0 mm 4 mps 761 mmHg 44%
    15:00 +22°C° 0 mm 4 mps 761 mmHg 43%
    16:00 +21°C° 0 mm 4 mps 761 mmHg 49%
    17:00 +20°C° 0 mm 4 mps 761 mmHg 54%
    18:00 +19°C° 0 mm 4 mps 761 mmHg 60%
    19:00 +18°C° 0 mm 4 mps 761 mmHg 65%
    20:00 +15°C° 0 mm 4 mps 762 mmHg 70%
    21:00 +14°C° 0 mm 3 mps 762 mmHg 75%
    22:00 +13°C° 0 mm 3 mps 762 mmHg 77%
    23:00 +13°C° 0 mm 3 mps 762 mmHg 80%

    30 August, Friday

    Time Temperature Precipitation Wind Pressure Humidity
    00:00 +12°C° 0 mm 3 mps 762 mmHg 83%
    01:00 +12°C° 0 mm 3 mps 762 mmHg 84%
    02:00 +11°C° 0 mm 3 mps 762 mmHg 86%
    03:00 +12°C° 0 mm 2 mps 762 mmHg 87%
    04:00 +11°C° 0 mm 3 mps 762 mmHg 88%
    05:00 +11°C° 0 mm 3 mps 762 mmHg 88%
    06:00 +11°C° 0 mm 3 mps 762 mmHg 89%
    07:00 +13°C° 0 mm 4 mps 762 mmHg 82%
    08:00 +14°C° 0 mm 4 mps 762 mmHg 75%
    09:00 +16°C° 0 mm 5 mps 762 mmHg 69%
    10:00 +17°C° 0 mm 5 mps 761 mmHg 66%
    11:00 +19°C° 0 mm 5 mps 761 mmHg 64%
    12:00 +20°C° 0 mm 5 mps 761 mmHg 61%
    13:00 +20°C° 0 mm 5 mps 761 mmHg 62%
    14:00 +20°C° 0 mm 6 mps 760 mmHg 63%
    15:00 +20°C° 0 mm 6 mps 760 mmHg 64%
    16:00 +20°C° 0 mm 5 mps 760 mmHg 67%
    17:00 +19°C° 0 mm 5 mps 759 mmHg 69%
    18:00 +19°C° 0 mm 4 mps 759 mmHg 72%
    19:00 +18°C° 0 mm 4 mps 759 mmHg 75%
    20:00 +16°C° 0 mm 5 mps 759 mmHg 78%
    21:00 +15°C° 0 mm 5 mps 759 mmHg 81%
    22:00 +15°C° 0 mm 5 mps 758 mmHg 83%
    23:00 +15°C° 0 mm 5 mps 758 mmHg 85%

    31 August, Saturday

    Time Temperature Precipitation Wind Pressure Humidity
    00:00 +14°C° 0 mm 6 mps 757 mmHg 87%
    01:00 +14°C° 0 mm 6 mps 757 mmHg 87%
    02:00 +14°C° 0 mm 6 mps 756 mmHg 87%
    03:00 +14°C° 0 mm 6 mps 756 mmHg 87%
    04:00 +15°C° 0 mm 6 mps 755 mmHg 85%
    05:00 +15°C° 0 mm 6 mps 755 mmHg 84%
    06:00 +15°C° 0 mm 6 mps 755 mmHg 83%
    07:00 +15°C° 0.1 mm 6 mps 755 mmHg 84%
    08:00 +16°C° 0.1 mm 6 mps 755 mmHg 85%
    09:00 +16°C° 0.1 mm 6 mps 755 mmHg 86%
    10:00 +16°C° 0.4 mm 6 mps 755 mmHg 86%
    11:00 +17°C° 0.4 mm 5 mps 755 mmHg 85%
    12:00 +18°C° 0.4 mm 4 mps 755 mmHg 85%
    13:00 +19°C° 0.1 mm 4 mps 755 mmHg 75%
    14:00 +19°C° 0.1 mm 4 mps 755 mmHg 65%
    15:00 +20°C° 0.1 mm 5 mps 755 mmHg 56%
    16:00 +19°C° 0 mm 5 mps 755 mmHg 58%
    17:00 +18°C° 0 mm 4 mps 755 mmHg 60%
    18:00 +17°C° 0 mm 4 mps 755 mmHg 63%
    19:00 +15°C° 0 mm 4 mps 756 mmHg 66%
    20:00 +14°C° 0 mm 4 mps 756 mmHg 69%
    21:00 +13°C° 0 mm 5 mps 757 mmHg 73%
    22:00 +12°C° 0 mm 4 mps 757 mmHg 75%
    23:00 +12°C° 0 mm 4 mps 757 mmHg 78%
    Show more